Home   Weather   Boulogne-Billancourt   Past weeks

Flag for France Past Weather in Boulogne-Billancourt, Île-de-France, France — Yesterday and Last 2 Weeks

Now
55 °F

Passing clouds.


Feels Like: 54 °F
Forecast: 54 / 64 °F
Wind: 6 mph from South

Location: Paris-Orly

Current Time: Sep 29, 2016 at 7:16:00 AM

Latest Report: Sep 29, 2016 at 6:30 AM


Visibility: 6 mi

Pressure: 30.21 "Hg

Humidity: 100%

Dew Point: 55 °F

Location of Boulogne-BillancourtLocation

Past Weather in Boulogne-Billancourt — Graph

°F

Boulogne-Billancourt Temperature Yesterday

Maximum temperature yesterday: 73 °F (at 2:07 PM)
Minimum temperature yesterday: 59 °F (at 3:00 AM)
Average temperature yesterday: 65 °F

High & Low Weather Summary for the Past Weeks

 TemperatureHumidityPressure
High82 °F (Sep 14, 3:30 PM)100% (Sep 15, 1:30 AM)30.39 "Hg (Sep 15, 1:30 AM)
Low46 °F (Sep 21, 7:00 AM)38% (Sep 24, 6:30 PM)29.80 "Hg (Sep 14, 9:30 PM)
Average62 °F78%30.11 "Hg
* Reported Sep 14 6:00 AM — Sep 29 6:00 AM, Boulogne-Billancourt, Weather by CustomWeather, © 2016

Note: Actual official high and low records may vary slightly from our data, if they occured in-between our weather recording intervals... More about our weather records

Advertising

Boulogne-Billancourt Weather History for the Previous 24 Hours

Scroll right to see more
 ConditionsComfort  
Time TempWeatherWind HumidityBarometerVisibility
6:00 AM
Thu, Sep 29
55 °FPassing clouds.6 mph100%30.21 "HgN/A
5:30 AM55 °FPassing clouds.5 mph100%30.21 "HgN/A
5:00 AM57 °FClear.8 mph94%30.21 "Hg10 mi
4:30 AM57 °FClear.7 mph94%30.24 "Hg10 mi
4:00 AM57 °FClear.6 mph94%30.24 "Hg10 mi
3:30 AM57 °FClear.7 mph94%30.24 "Hg10 mi
3:00 AM57 °FClear.6 mph94%30.27 "Hg10 mi
2:30 AM57 °FClear.7 mph94%30.27 "Hg10 mi
2:00 AM57 °FClear.2 mph94%30.27 "Hg10 mi
1:30 AM59 °FClear.5 mph94%30.27 "Hg10 mi
1:00 AM59 °FClear.5 mph94%30.30 "Hg10 mi
12:30 AM59 °FClear.6 mph94%30.30 "Hg10 mi
12:00 AM59 °FClear.5 mph94%30.30 "Hg10 mi
11:30 PM
Wed, Sep 28
59 °FClear.3 mph94%30.30 "Hg10 mi
11:00 PM61 °FPassing clouds.8 mph88%30.30 "HgN/A
10:30 PM61 °FPassing clouds.3 mph88%30.33 "HgN/A
10:00 PM63 °FPassing clouds.6 mph83%30.33 "HgN/A
9:30 PM64 °FClear.7 mph78%30.33 "Hg10 mi
9:00 PM64 °FClear.7 mph78%30.33 "Hg10 mi
8:30 PM66 °FClear.8 mph73%30.33 "Hg10 mi
8:00 PM66 °FClear.8 mph73%30.33 "Hg10 mi
7:30 PM68 °FSunny.9 mph73%30.33 "Hg10 mi
7:00 PM70 °FSunny.9 mph69%30.33 "Hg10 mi
6:30 PM70 °FSunny.10 mph69%30.33 "Hg10 mi
6:00 PM72 °FScattered clouds.10 mph65%30.33 "HgN/A
5:30 PM73 °FScattered clouds.12 mph61%30.33 "HgN/A
5:00 PM73 °FBroken clouds.9 mph61%30.33 "HgN/A
4:30 PM73 °FBroken clouds.9 mph57%30.36 "HgN/A
3:54 PM72 °FPartly sunny.9 mph61%30.36 "HgN/A
3:30 PM73 °FPartly sunny.10 mph61%30.36 "HgN/A
3:00 PM73 °FPartly sunny.10 mph65%30.36 "HgN/A
2:30 PM72 °FPartly sunny.7 mph65%30.36 "HgN/A
2:07 PM73 °FPartly sunny.10 mph61%30.36 "HgN/A
1:30 PM70 °FPartly sunny.8 mph69%30.36 "HgN/A
1:00 PM70 °FBroken clouds.10 mph69%30.36 "HgN/A
12:30 PM68 °FPartly sunny.9 mph73%30.39 "HgN/A
12:00 PM70 °FPartly sunny.10 mph73%30.39 "HgN/A
11:30 AM70 °FBroken clouds.6 mph73%30.39 "HgN/A
11:00 AM66 °FPartly sunny.5 mph78%30.39 "HgN/A
10:30 AM64 °FBroken clouds.3 mph78%30.39 "HgN/A
10:00 AM63 °FPartly sunny.3 mph83%30.39 "HgN/A
9:30 AM63 °FPartly sunny.2 mph77%30.36 "HgN/A
9:00 AM63 °FPartly sunny.3 mph77%30.36 "HgN/A
8:30 AM61 °FPartly sunny.2 mph83%30.36 "HgN/A
8:00 AM61 °FPartly sunny.3 mph77%30.36 "HgN/A
7:30 AM61 °FPassing clouds.3 mph72%30.36 "HgN/A
7:00 AM61 °FPassing clouds.3 mph72%30.36 "HgN/A
Weather by CustomWeather, © 2016

See weather overviewHow to use our weather pages